owner,sensor,date,latitude,longitude,vertical_datum,sea_water_practical_salinity,qcFlag 
NERRS,ioos:station:NOAA.NERRS:marcewq:1,2012-05-01T00:00:00Z,28.1323,-97.0344,0.0,25.4,1111122 
NERRS,ioos:station:NOAA.NERRS:marcewq:1,2012-05-01T00:30:00Z,28.1323,-97.0344,0.0,22.5,1111122 
NERRS,ioos:station:NOAA.NERRS:marcewq:1,2012-05-01T01:00:00Z,28.1323,-97.0344,0.0,22.7,1111122 
NERRS,ioos:station:NOAA.NERRS:marcewq:1,2012-05-01T01:30:00Z,28.1323,-97.0344,0.0,22.8,1111122 
NERRS,ioos:station:NOAA.NERRS:marcewq:1,2012-05-01T02:00:00Z,28.1323,-97.0344,0.0,22.5,1111122 
NERRS,ioos:station:NOAA.NERRS:marcewq:1,2012-05-01T02:30:00Z,28.1323,-97.0344,0.0,22.6,1111122 
NERRS,ioos:station:NOAA.NERRS:marcewq:1,2012-05-01T03:00:00Z,28.1323,-97.0344,0.0,23.4,1111122 
NERRS,ioos:station:NOAA.NERRS:marcewq:1,2012-05-01T03:30:00Z,28.1323,-97.0344,0.0,23.5,1111122 
NERRS,ioos:station:NOAA.NERRS:marcewq:1,2012-05-01T04:00:00Z,28.1323,-97.0344,0.0,23.7,1111122 
NERRS,ioos:station:NOAA.NERRS:marcewq:1,2012-05-01T04:30:00Z,28.1323,-97.0344,0.0,22.9,1111122 
NERRS,ioos:station:NOAA.NERRS:marcewq:1,2012-05-01T05:30:00Z,28.1323,-97.0344,0.0,23.4,1111122 
NERRS,ioos:station:NOAA.NERRS:marcewq:1,2012-05-01T06:00:00Z,28.1323,-97.0344,0.0,23.6,1111122 
NERRS,ioos:station:NOAA.NERRS:marcewq:1,2012-05-01T06:30:00Z,28.1323,-97.0344,0.0,22.5,1111122 
NERRS,ioos:station:NOAA.NERRS:marcewq:1,2012-05-01T07:00:00Z,28.1323,-97.0344,0.0,23.2,1111122 
NERRS,ioos:station:NOAA.NERRS:marcewq:1,2012-05-01T07:30:00Z,28.1323,-97.0344,0.0,23.5,1111122 
NERRS,ioos:station:NOAA.NERRS:marcewq:1,2012-05-01T08:00:00Z,28.1323,-97.0344,0.0,23.1,1111122 
NERRS,ioos:station:NOAA.NERRS:marcewq:1,2012-05-01T08:30:00Z,28.1323,-97.0344,0.0,25.7,1111122 
NERRS,ioos:station:NOAA.NERRS:marcewq:1,2012-05-01T09:00:00Z,28.1323,-97.0344,0.0,25.7,1111122 
NERRS,ioos:station:NOAA.NERRS:marcewq:1,2012-05-01T09:30:00Z,28.1323,-97.0344,0.0,23.7,1111122 
NERRS,ioos:station:NOAA.NERRS:marcewq:1,2012-05-01T10:00:00Z,28.1323,-97.0344,0.0,23.1,1111122 
NERRS,ioos:station:NOAA.NERRS:marcewq:1,2012-05-01T10:30:00Z,28.1323,-97.0344,0.0,22.8,1111122 
NERRS,ioos:station:NOAA.NERRS:marcewq:1,2012-05-01T11:00:00Z,28.1323,-97.0344,0.0,22.5,1111122 
NERRS,ioos:station:NOAA.NERRS:marcewq:1,2012-05-01T11:30:00Z,28.1323,-97.0344,0.0,22.9,1111122 
NERRS,ioos:station:NOAA.NERRS:marcewq:1,2012-05-01T12:00:00Z,28.1323,-97.0344,0.0,24.2,1111122 
NERRS,ioos:station:NOAA.NERRS:marcewq:1,2012-05-01T12:30:00Z,28.1323,-97.0344,0.0,23.5,1111122 
NERRS,ioos:station:NOAA.NERRS:marcewq:1,2012-05-01T13:00:00Z,28.1323,-97.0344,0.0,25.6,1111122 
NERRS,ioos:station:NOAA.NERRS:marcewq:1,2012-05-01T13:30:00Z,28.1323,-97.0344,0.0,21.5,1111122 
NERRS,ioos:station:NOAA.NERRS:marcewq:1,2012-05-01T14:00:00Z,28.1323,-97.0344,0.0,21.9,1111122 
NERRS,ioos:station:NOAA.NERRS:marcewq:1,2012-05-01T14:30:00Z,28.1323,-97.0344,0.0,23.5,1111122 
NERRS,ioos:station:NOAA.NERRS:marcewq:1,2012-05-01T15:00:00Z,28.1323,-97.0344,0.0,25.8,1111122 
NERRS,ioos:station:NOAA.NERRS:marcewq:1,2012-05-01T15:30:00Z,28.1323,-97.0344,0.0,25.9,1111122 
NERRS,ioos:station:NOAA.NERRS:marcewq:1,2012-05-01T16:00:00Z,28.1323,-97.0344,0.0,25.8,1111122 
NERRS,ioos:station:NOAA.NERRS:marcewq:1,2012-05-01T16:30:00Z,28.1323,-97.0344,0.0,25.8,1111122 
NERRS,ioos:station:NOAA.NERRS:marcewq:1,2012-05-01T17:00:00Z,28.1323,-97.0344,0.0,25.8,1111122 
NERRS,ioos:station:NOAA.NERRS:marcewq:1,2012-05-01T17:30:00Z,28.1323,-97.0344,0.0,25.7,1111122 
NERRS,ioos:station:NOAA.NERRS:marcewq:1,2012-05-01T18:00:00Z,28.1323,-97.0344,0.0,25.6,1111122 
NERRS,ioos:station:NOAA.NERRS:marcewq:1,2012-05-01T18:30:00Z,28.1323,-97.0344,0.0,25.6,1111122 
NERRS,ioos:station:NOAA.NERRS:marcewq:1,2012-05-01T19:00:00Z,28.1323,-97.0344,0.0,25.6,1111122 
NERRS,ioos:station:NOAA.NERRS:marcewq:1,2012-05-01T19:30:00Z,28.1323,-97.0344,0.0,25.6,1111122 
NERRS,ioos:station:NOAA.NERRS:marcewq:1,2012-05-01T20:00:00Z,28.1323,-97.0344,0.0,25.6,1111122 
NERRS,ioos:station:NOAA.NERRS:marcewq:1,2012-05-01T20:30:00Z,28.1323,-97.0344,0.0,25.6,1111122 
NERRS,ioos:station:NOAA.NERRS:marcewq:1,2012-05-01T21:00:00Z,28.1323,-97.0344,0.0,25.6,1111122 
NERRS,ioos:station:NOAA.NERRS:marcewq:1,2012-05-01T21:30:00Z,28.1323,-97.0344,0.0,25.6,1111122 
NERRS,ioos:station:NOAA.NERRS:marcewq:1,2012-05-01T22:00:00Z,28.1323,-97.0344,0.0,25.6,1111122 
NERRS,ioos:station:NOAA.NERRS:marcewq:1,2012-05-01T22:30:00Z,28.1323,-97.0344,0.0,25.6,1111122 
NERRS,ioos:station:NOAA.NERRS:marcewq:1,2012-05-01T23:00:00Z,28.1323,-97.0344,0.0,25.6,1111122 
NERRS,ioos:station:NOAA.NERRS:marcewq:1,2012-05-01T23:30:00Z,28.1323,-97.0344,0.0,25.6,1111122 
NERRS,ioos:station:NOAA.NERRS:marcewq:1,2012-05-02T00:00:00Z,28.1323,-97.0344,0.0,25.6,1111122 
NERRS,ioos:station:NOAA.NERRS:marcewq:1,2012-05-02T00:30:00Z,28.1323,-97.0344,0.0,25.6,1111122 
NERRS,ioos:station:NOAA.NERRS:marcewq:1,2012-05-02T01:00:00Z,28.1323,-97.0344,0.0,25.6,1111122 
NERRS,ioos:station:NOAA.NERRS:marcewq:1,2012-05-02T01:30:00Z,28.1323,-97.0344,0.0,25.6,1111122 
NERRS,ioos:station:NOAA.NERRS:marcewq:1,2012-05-02T02:00:00Z,28.1323,-97.0344,0.0,25.6,1111122 
NERRS,ioos:station:NOAA.NERRS:marcewq:1,2012-05-02T02:30:00Z,28.1323,-97.0344,0.0,25.3,1111122 
NERRS,ioos:station:NOAA.NERRS:marcewq:1,2012-05-02T03:00:00Z,28.1323,-97.0344,0.0,25.6,1111122 
NERRS,ioos:station:NOAA.NERRS:marcewq:1,2012-05-02T03:30:00Z,28.1323,-97.0344,0.0,25.6,1111122 
NERRS,ioos:station:NOAA.NERRS:marcewq:1,2012-05-02T04:00:00Z,28.1323,-97.0344,0.0,25.6,1111122 
NERRS,ioos:station:NOAA.NERRS:marcewq:1,2012-05-02T04:30:00Z,28.1323,-97.0344,0.0,25.7,1111122 
NERRS,ioos:station:NOAA.NERRS:marcewq:1,2012-05-02T05:00:00Z,28.1323,-97.0344,0.0,25.7,1111122 
NERRS,ioos:station:NOAA.NERRS:marcewq:1,2012-05-02T05:30:00Z,28.1323,-97.0344,0.0,25.8,1111122 
NERRS,ioos:station:NOAA.NERRS:marcewq:1,2012-05-02T06:00:00Z,28.1323,-97.0344,0.0,25.7,1111122 
NERRS,ioos:station:NOAA.NERRS:marcewq:1,2012-05-02T06:30:00Z,28.1323,-97.0344,0.0,25.6,1111122 
NERRS,ioos:station:NOAA.NERRS:marcewq:1,2012-05-02T07:00:00Z,28.1323,-97.0344,0.0,25.5,1111122 
NERRS,ioos:station:NOAA.NERRS:marcewq:1,2012-05-02T07:30:00Z,28.1323,-97.0344,0.0,25.4,1111122 
NERRS,ioos:station:NOAA.NERRS:marcewq:1,2012-05-02T08:00:00Z,28.1323,-97.0344,0.0,25.3,1111122 
NERRS,ioos:station:NOAA.NERRS:marcewq:1,2012-05-02T08:30:00Z,28.1323,-97.0344,0.0,25.3,1111122 
NERRS,ioos:station:NOAA.NERRS:marcewq:1,2012-05-02T09:00:00Z,28.1323,-97.0344,0.0,25.3,1111122 
NERRS,ioos:station:NOAA.NERRS:marcewq:1,2012-05-02T10:00:00Z,28.1323,-97.0344,0.0,26.0,1111122 
NERRS,ioos:station:NOAA.NERRS:marcewq:1,2012-05-02T10:30:00Z,28.1323,-97.0344,0.0,26.1,1111122 
NERRS,ioos:station:NOAA.NERRS:marcewq:1,2012-05-02T11:00:00Z,28.1323,-97.0344,0.0,26.1,1111122 
NERRS,ioos:station:NOAA.NERRS:marcewq:1,2012-05-02T11:30:00Z,28.1323,-97.0344,0.0,26.1,1111122 
NERRS,ioos:station:NOAA.NERRS:marcewq:1,2012-05-02T12:00:00Z,28.1323,-97.0344,0.0,26.2,1111122 
NERRS,ioos:station:NOAA.NERRS:marcewq:1,2012-05-02T12:30:00Z,28.1323,-97.0344,0.0,25.9,1111122 
NERRS,ioos:station:NOAA.NERRS:marcewq:1,2012-05-02T13:00:00Z,28.1323,-97.0344,0.0,25.5,1111122 
NERRS,ioos:station:NOAA.NERRS:marcewq:1,2012-05-02T13:30:00Z,28.1323,-97.0344,0.0,25.5,1111122 
NERRS,ioos:station:NOAA.NERRS:marcewq:1,2012-05-02T14:00:00Z,28.1323,-97.0344,0.0,25.4,1111122 
NERRS,ioos:station:NOAA.NERRS:marcewq:1,2012-05-02T14:30:00Z,28.1323,-97.0344,0.0,25.4,1111122 
NERRS,ioos:station:NOAA.NERRS:marcewq:1,2012-05-02T15:00:00Z,28.1323,-97.0344,0.0,25.4,1111122 
NERRS,ioos:station:NOAA.NERRS:marcewq:1,2012-05-02T15:30:00Z,28.1323,-97.0344,0.0,25.5,1111122 
NERRS,ioos:station:NOAA.NERRS:marcewq:1,2012-05-02T16:00:00Z,28.1323,-97.0344,0.0,25.4,1111122 
NERRS,ioos:station:NOAA.NERRS:marcewq:1,2012-05-02T16:30:00Z,28.1323,-97.0344,0.0,25.4,1111122 
NERRS,ioos:station:NOAA.NERRS:marcewq:1,2012-05-03T14:00:00Z,28.1323,-97.0344,0.0,25.8,1111122 
NERRS,ioos:station:NOAA.NERRS:marcewq:1,2012-05-03T15:00:00Z,28.1323,-97.0344,0.0,25.6,1111122 
NERRS,ioos:station:NOAA.NERRS:marcewq:1,2012-05-03T15:30:00Z,28.1323,-97.0344,0.0,25.6,1111122 
NERRS,ioos:station:NOAA.NERRS:marcewq:1,2012-05-03T16:00:00Z,28.1323,-97.0344,0.0,25.5,1111122 
NERRS,ioos:station:NOAA.NERRS:marcewq:1,2012-05-03T16:30:00Z,28.1323,-97.0344,0.0,25.5,1111122 
NERRS,ioos:station:NOAA.NERRS:marcewq:1,2012-05-03T17:00:00Z,28.1323,-97.0344,0.0,25.5,1111122 
NERRS,ioos:station:NOAA.NERRS:marcewq:1,2012-05-03T17:30:00Z,28.1323,-97.0344,0.0,25.5,1111122 
NERRS,ioos:station:NOAA.NERRS:marcewq:1,2012-05-03T18:00:00Z,28.1323,-97.0344,0.0,25.5,1111122 
NERRS,ioos:station:NOAA.NERRS:marcewq:1,2012-05-03T18:30:00Z,28.1323,-97.0344,0.0,25.4,1111122 
NERRS,ioos:station:NOAA.NERRS:marcewq:1,2012-05-03T19:00:00Z,28.1323,-97.0344,0.0,25.5,1111122 
NERRS,ioos:station:NOAA.NERRS:marcewq:1,2012-05-03T19:30:00Z,28.1323,-97.0344,0.0,25.5,1111122 
NERRS,ioos:station:NOAA.NERRS:marcewq:1,2012-05-03T20:00:00Z,28.1323,-97.0344,0.0,25.5,1111122 
NERRS,ioos:station:NOAA.NERRS:marcewq:1,2012-05-03T20:30:00Z,28.1323,-97.0344,0.0,25.5,1111122 
NERRS,ioos:station:NOAA.NERRS:marcewq:1,2012-05-03T21:00:00Z,28.1323,-97.0344,0.0,25.5,1111122 
NERRS,ioos:station:NOAA.NERRS:marcewq:1,2012-05-03T21:30:00Z,28.1323,-97.0344,0.0,25.5,1111122 
NERRS,ioos:station:NOAA.NERRS:marcewq:1,2012-05-03T22:00:00Z,28.1323,-97.0344,0.0,25.5,1111122 
NERRS,ioos:station:NOAA.NERRS:marcewq:1,2012-05-03T22:30:00Z,28.1323,-97.0344,0.0,25.5,1111122 
NERRS,ioos:station:NOAA.NERRS:marcewq:1,2012-05-03T23:00:00Z,28.1323,-97.0344,0.0,25.5,1111122 
NERRS,ioos:station:NOAA.NERRS:marcewq:1,2012-05-03T23:30:00Z,28.1323,-97.0344,0.0,25.4,1111122 
NERRS,ioos:station:NOAA.NERRS:marcewq:1,2012-05-04T00:00:00Z,28.1323,-97.0344,0.0,25.3,1111122 
NERRS,ioos:station:NOAA.NERRS:marcewq:1,2012-05-04T00:30:00Z,28.1323,-97.0344,0.0,25.2,1111122 
NERRS,ioos:station:NOAA.NERRS:marcewq:1,2012-05-04T01:00:00Z,28.1323,-97.0344,0.0,25.1,1111122 
NERRS,ioos:station:NOAA.NERRS:marcewq:1,2012-05-04T02:00:00Z,28.1323,-97.0344,0.0,25.2,1111122 
NERRS,ioos:station:NOAA.NERRS:marcewq:1,2012-05-04T02:30:00Z,28.1323,-97.0344,0.0,25.3,1111122 
NERRS,ioos:station:NOAA.NERRS:marcewq:1,2012-05-04T03:00:00Z,28.1323,-97.0344,0.0,25.3,1111122 
NERRS,ioos:station:NOAA.NERRS:marcewq:1,2012-05-04T03:30:00Z,28.1323,-97.0344,0.0,25.4,1111122 
NERRS,ioos:station:NOAA.NERRS:marcewq:1,2012-05-04T04:00:00Z,28.1323,-97.0344,0.0,25.5,1111122 
NERRS,ioos:station:NOAA.NERRS:marcewq:1,2012-05-04T04:30:00Z,28.1323,-97.0344,0.0,25.5,1111122 
NERRS,ioos:station:NOAA.NERRS:marcewq:1,2012-05-04T05:00:00Z,28.1323,-97.0344,0.0,25.5,1111122 
NERRS,ioos:station:NOAA.NERRS:marcewq:1,2012-05-04T05:30:00Z,28.1323,-97.0344,0.0,25.5,1111122 
NERRS,ioos:station:NOAA.NERRS:marcewq:1,2012-05-04T06:00:00Z,28.1323,-97.0344,0.0,25.6,1111122 
NERRS,ioos:station:NOAA.NERRS:marcewq:1,2012-05-04T06:30:00Z,28.1323,-97.0344,0.0,25.6,1111122 
NERRS,ioos:station:NOAA.NERRS:marcewq:1,2012-05-04T07:00:00Z,28.1323,-97.0344,0.0,25.7,1111122 
NERRS,ioos:station:NOAA.NERRS:marcewq:1,2012-05-04T07:30:00Z,28.1323,-97.0344,0.0,25.5,1111122 
NERRS,ioos:station:NOAA.NERRS:marcewq:1,2012-05-04T08:00:00Z,28.1323,-97.0344,0.0,25.4,1111122 
NERRS,ioos:station:NOAA.NERRS:marcewq:1,2012-05-04T08:30:00Z,28.1323,-97.0344,0.0,25.4,1111122 
NERRS,ioos:station:NOAA.NERRS:marcewq:1,2012-05-04T09:00:00Z,28.1323,-97.0344,0.0,25.4,1111122 
NERRS,ioos:station:NOAA.NERRS:marcewq:1,2012-05-04T09:30:00Z,28.1323,-97.0344,0.0,25.4,1111122 
NERRS,ioos:station:NOAA.NERRS:marcewq:1,2012-05-04T10:00:00Z,28.1323,-97.0344,0.0,25.4,1111122 
NERRS,ioos:station:NOAA.NERRS:marcewq:1,2012-05-04T11:00:00Z,28.1323,-97.0344,0.0,25.5,1111122 
NERRS,ioos:station:NOAA.NERRS:marcewq:1,2012-05-04T11:30:00Z,28.1323,-97.0344,0.0,25.5,1111122 
NERRS,ioos:station:NOAA.NERRS:marcewq:1,2012-05-04T12:00:00Z,28.1323,-97.0344,0.0,25.4,1111122 
NERRS,ioos:station:NOAA.NERRS:marcewq:1,2012-05-04T12:30:00Z,28.1323,-97.0344,0.0,25.4,1111122 
NERRS,ioos:station:NOAA.NERRS:marcewq:1,2012-05-04T13:00:00Z,28.1323,-97.0344,0.0,25.4,1111122 
NERRS,ioos:station:NOAA.NERRS:marcewq:1,2012-05-04T13:30:00Z,28.1323,-97.0344,0.0,25.3,1111122 
NERRS,ioos:station:NOAA.NERRS:marcewq:1,2012-05-04T14:30:00Z,28.1323,-97.0344,0.0,25.3,1111122 
NERRS,ioos:station:NOAA.NERRS:marcewq:1,2012-05-04T15:00:00Z,28.1323,-97.0344,0.0,25.3,1111122 
NERRS,ioos:station:NOAA.NERRS:marcewq:1,2012-05-04T15:30:00Z,28.1323,-97.0344,0.0,25.3,1111122 
NERRS,ioos:station:NOAA.NERRS:marcewq:1,2012-05-04T16:00:00Z,28.1323,-97.0344,0.0,25.3,1111122 
NERRS,ioos:station:NOAA.NERRS:marcewq:1,2012-05-04T16:30:00Z,28.1323,-97.0344,0.0,25.5,1111122 
NERRS,ioos:station:NOAA.NERRS:marcewq:1,2012-05-04T17:00:00Z,28.1323,-97.0344,0.0,25.5,1111122 
NERRS,ioos:station:NOAA.NERRS:marcewq:1,2012-05-04T17:30:00Z,28.1323,-97.0344,0.0,25.4,1111122 
NERRS,ioos:station:NOAA.NERRS:marcewq:1,2012-05-04T18:00:00Z,28.1323,-97.0344,0.0,25.4,1111122 
NERRS,ioos:station:NOAA.NERRS:marcewq:1,2012-05-04T18:30:00Z,28.1323,-97.0344,0.0,25.4,1111122 
NERRS,ioos:station:NOAA.NERRS:marcewq:1,2012-05-04T19:30:00Z,28.1323,-97.0344,0.0,25.7,1111122 
NERRS,ioos:station:NOAA.NERRS:marcewq:1,2012-05-04T20:00:00Z,28.1323,-97.0344,0.0,25.5,1111122 
NERRS,ioos:station:NOAA.NERRS:marcewq:1,2012-05-04T20:30:00Z,28.1323,-97.0344,0.0,25.5,1111122 
NERRS,ioos:station:NOAA.NERRS:marcewq:1,2012-05-04T21:00:00Z,28.1323,-97.0344,0.0,25.6,1111122 
NERRS,ioos:station:NOAA.NERRS:marcewq:1,2012-05-04T21:30:00Z,28.1323,-97.0344,0.0,25.6,1111122 
NERRS,ioos:station:NOAA.NERRS:marcewq:1,2012-05-04T22:00:00Z,28.1323,-97.0344,0.0,25.7,1111122 
NERRS,ioos:station:NOAA.NERRS:marcewq:1,2012-05-04T22:30:00Z,28.1323,-97.0344,0.0,25.7,1111122 
NERRS,ioos:station:NOAA.NERRS:marcewq:1,2012-05-04T23:00:00Z,28.1323,-97.0344,0.0,25.6,1111122 
NERRS,ioos:station:NOAA.NERRS:marcewq:1,2012-05-05T00:00:00Z,28.1323,-97.0344,0.0,25.4,1111122 
NERRS,ioos:station:NOAA.NERRS:marcewq:1,2012-05-05T00:30:00Z,28.1323,-97.0344,0.0,25.2,1111122 
NERRS,ioos:station:NOAA.NERRS:marcewq:1,2012-05-05T01:00:00Z,28.1323,-97.0344,0.0,25.2,1111122 
NERRS,ioos:station:NOAA.NERRS:marcewq:1,2012-05-05T01:30:00Z,28.1323,-97.0344,0.0,25.4,1111122 
NERRS,ioos:station:NOAA.NERRS:marcewq:1,2012-05-05T02:00:00Z,28.1323,-97.0344,0.0,25.3,1111122 
NERRS,ioos:station:NOAA.NERRS:marcewq:1,2012-05-05T02:30:00Z,28.1323,-97.0344,0.0,25.2,1111122 
NERRS,ioos:station:NOAA.NERRS:marcewq:1,2012-05-05T03:30:00Z,28.1323,-97.0344,0.0,25.2,1111122 
NERRS,ioos:station:NOAA.NERRS:marcewq:1,2012-05-05T04:00:00Z,28.1323,-97.0344,0.0,25.2,1111122 
NERRS,ioos:station:NOAA.NERRS:marcewq:1,2012-05-05T04:30:00Z,28.1323,-97.0344,0.0,25.2,1111122 
NERRS,ioos:station:NOAA.NERRS:marcewq:1,2012-05-05T05:00:00Z,28.1323,-97.0344,0.0,25.2,1111122 
NERRS,ioos:station:NOAA.NERRS:marcewq:1,2012-05-05T05:30:00Z,28.1323,-97.0344,0.0,25.2,1111122 
NERRS,ioos:station:NOAA.NERRS:marcewq:1,2012-05-05T06:00:00Z,28.1323,-97.0344,0.0,25.3,1111122 
NERRS,ioos:station:NOAA.NERRS:marcewq:1,2012-05-05T06:30:00Z,28.1323,-97.0344,0.0,25.3,1111122 
NERRS,ioos:station:NOAA.NERRS:marcewq:1,2012-05-05T07:00:00Z,28.1323,-97.0344,0.0,25.3,1111122 
NERRS,ioos:station:NOAA.NERRS:marcewq:1,2012-05-05T07:30:00Z,28.1323,-97.0344,0.0,25.2,1111122 
NERRS,ioos:station:NOAA.NERRS:marcewq:1,2012-05-05T08:00:00Z,28.1323,-97.0344,0.0,25.2,1111122 
NERRS,ioos:station:NOAA.NERRS:marcewq:1,2012-05-05T08:30:00Z,28.1323,-97.0344,0.0,25.3,1111122 
NERRS,ioos:station:NOAA.NERRS:marcewq:1,2012-05-05T09:00:00Z,28.1323,-97.0344,0.0,25.3,1111122 
NERRS,ioos:station:NOAA.NERRS:marcewq:1,2012-05-05T09:30:00Z,28.1323,-97.0344,0.0,25.3,1111122 
NERRS,ioos:station:NOAA.NERRS:marcewq:1,2012-05-05T10:30:00Z,28.1323,-97.0344,0.0,25.3,1111122 
NERRS,ioos:station:NOAA.NERRS:marcewq:1,2012-05-05T11:00:00Z,28.1323,-97.0344,0.0,25.2,1111122 
NERRS,ioos:station:NOAA.NERRS:marcewq:1,2012-05-05T11:30:00Z,28.1323,-97.0344,0.0,25.2,1111122 
NERRS,ioos:station:NOAA.NERRS:marcewq:1,2012-05-05T12:00:00Z,28.1323,-97.0344,0.0,25.3,1111122 
NERRS,ioos:station:NOAA.NERRS:marcewq:1,2012-05-05T12:30:00Z,28.1323,-97.0344,0.0,25.3,1111122 
NERRS,ioos:station:NOAA.NERRS:marcewq:1,2012-05-05T13:00:00Z,28.1323,-97.0344,0.0,25.4,1111122 
NERRS,ioos:station:NOAA.NERRS:marcewq:1,2012-05-05T13:30:00Z,28.1323,-97.0344,0.0,25.4,1111122 
NERRS,ioos:station:NOAA.NERRS:marcewq:1,2012-05-05T14:00:00Z,28.1323,-97.0344,0.0,25.4,1111122 
NERRS,ioos:station:NOAA.NERRS:marcewq:1,2012-05-05T14:30:00Z,28.1323,-97.0344,0.0,25.4,1111122 
NERRS,ioos:station:NOAA.NERRS:marcewq:1,2012-05-05T15:00:00Z,28.1323,-97.0344,0.0,25.4,1111122 
NERRS,ioos:station:NOAA.NERRS:marcewq:1,2012-05-05T15:30:00Z,28.1323,-97.0344,0.0,25.5,1111122 
NERRS,ioos:station:NOAA.NERRS:marcewq:1,2012-05-05T16:00:00Z,28.1323,-97.0344,0.0,25.5,1111122 
NERRS,ioos:station:NOAA.NERRS:marcewq:1,2012-05-05T16:30:00Z,28.1323,-97.0344,0.0,25.6,1111122 
NERRS,ioos:station:NOAA.NERRS:marcewq:1,2012-05-05T17:00:00Z,28.1323,-97.0344,0.0,25.7,1111122 
NERRS,ioos:station:NOAA.NERRS:marcewq:1,2012-05-05T17:30:00Z,28.1323,-97.0344,0.0,25.8,1111122 
NERRS,ioos:station:NOAA.NERRS:marcewq:1,2012-05-05T18:00:00Z,28.1323,-97.0344,0.0,25.9,1111122 
NERRS,ioos:station:NOAA.NERRS:marcewq:1,2012-05-05T18:30:00Z,28.1323,-97.0344,0.0,26.0,1111122 
NERRS,ioos:station:NOAA.NERRS:marcewq:1,2012-05-05T19:00:00Z,28.1323,-97.0344,0.0,26.0,1111122 
NERRS,ioos:station:NOAA.NERRS:marcewq:1,2012-05-05T19:30:00Z,28.1323,-97.0344,0.0,26.1,1111122 
NERRS,ioos:station:NOAA.NERRS:marcewq:1,2012-05-05T20:00:00Z,28.1323,-97.0344,0.0,26.1,1111122 
NERRS,ioos:station:NOAA.NERRS:marcewq:1,2012-05-05T20:30:00Z,28.1323,-97.0344,0.0,26.2,1111122 
NERRS,ioos:station:NOAA.NERRS:marcewq:1,2012-05-05T21:00:00Z,28.1323,-97.0344,0.0,26.1,1111122 
NERRS,ioos:station:NOAA.NERRS:marcewq:1,2012-05-05T21:30:00Z,28.1323,-97.0344,0.0,26.3,1111122 
NERRS,ioos:station:NOAA.NERRS:marcewq:1,2012-05-05T22:00:00Z,28.1323,-97.0344,0.0,26.4,1111122 
NERRS,ioos:station:NOAA.NERRS:marcewq:1,2012-05-05T22:30:00Z,28.1323,-97.0344,0.0,26.5,1111122 
NERRS,ioos:station:NOAA.NERRS:marcewq:1,2012-05-05T23:00:00Z,28.1323,-97.0344,0.0,26.6,1111122 
NERRS,ioos:station:NOAA.NERRS:marcewq:1,2012-05-06T00:00:00Z,28.1323,-97.0344,0.0,26.5,1111122 
NERRS,ioos:station:NOAA.NERRS:marcewq:1,2012-05-06T00:30:00Z,28.1323,-97.0344,0.0,26.4,1111122 
NERRS,ioos:station:NOAA.NERRS:marcewq:1,2012-05-06T01:00:00Z,28.1323,-97.0344,0.0,26.3,1111122 
NERRS,ioos:station:NOAA.NERRS:marcewq:1,2012-05-06T01:30:00Z,28.1323,-97.0344,0.0,26.1,1111122 
NERRS,ioos:station:NOAA.NERRS:marcewq:1,2012-05-06T02:00:00Z,28.1323,-97.0344,0.0,25.9,1111122 
NERRS,ioos:station:NOAA.NERRS:marcewq:1,2012-05-06T02:30:00Z,28.1323,-97.0344,0.0,25.8,1111122 
NERRS,ioos:station:NOAA.NERRS:marcewq:1,2012-05-06T03:00:00Z,28.1323,-97.0344,0.0,25.6,1111122 
NERRS,ioos:station:NOAA.NERRS:marcewq:1,2012-05-06T03:30:00Z,28.1323,-97.0344,0.0,25.5,1111122 
NERRS,ioos:station:NOAA.NERRS:marcewq:1,2012-05-06T04:00:00Z,28.1323,-97.0344,0.0,25.4,1111122 
NERRS,ioos:station:NOAA.NERRS:marcewq:1,2012-05-06T05:00:00Z,28.1323,-97.0344,0.0,25.1,1111122 
NERRS,ioos:station:NOAA.NERRS:marcewq:1,2012-05-06T05:30:00Z,28.1323,-97.0344,0.0,24.9,1111122 
NERRS,ioos:station:NOAA.NERRS:marcewq:1,2012-05-06T06:00:00Z,28.1323,-97.0344,0.0,24.7,1111122 
NERRS,ioos:station:NOAA.NERRS:marcewq:1,2012-05-06T06:30:00Z,28.1323,-97.0344,0.0,24.9,1111122 
NERRS,ioos:station:NOAA.NERRS:marcewq:1,2012-05-06T07:00:00Z,28.1323,-97.0344,0.0,24.7,1111122 
NERRS,ioos:station:NOAA.NERRS:marcewq:1,2012-05-06T07:30:00Z,28.1323,-97.0344,0.0,24.7,1111122 
NERRS,ioos:station:NOAA.NERRS:marcewq:1,2012-05-06T08:00:00Z,28.1323,-97.0344,0.0,24.8,1111122 
NERRS,ioos:station:NOAA.NERRS:marcewq:1,2012-05-06T08:30:00Z,28.1323,-97.0344,0.0,24.8,1111122 
NERRS,ioos:station:NOAA.NERRS:marcewq:1,2012-05-06T09:00:00Z,28.1323,-97.0344,0.0,24.8,1111122 
NERRS,ioos:station:NOAA.NERRS:marcewq:1,2012-05-06T09:30:00Z,28.1323,-97.0344,0.0,25.0,1111122 
NERRS,ioos:station:NOAA.NERRS:marcewq:1,2012-05-06T10:00:00Z,28.1323,-97.0344,0.0,25.0,1111122 
NERRS,ioos:station:NOAA.NERRS:marcewq:1,2012-05-06T10:30:00Z,28.1323,-97.0344,0.0,25.3,1111122 
NERRS,ioos:station:NOAA.NERRS:marcewq:1,2012-05-06T11:00:00Z,28.1323,-97.0344,0.0,25.2,1111122 
NERRS,ioos:station:NOAA.NERRS:marcewq:1,2012-05-06T11:30:00Z,28.1323,-97.0344,0.0,25.2,1111122 
NERRS,ioos:station:NOAA.NERRS:marcewq:1,2012-05-06T12:00:00Z,28.1323,-97.0344,0.0,25.0,1111122 
NERRS,ioos:station:NOAA.NERRS:marcewq:1,2012-05-06T12:30:00Z,28.1323,-97.0344,0.0,25.1,1111122 
NERRS,ioos:station:NOAA.NERRS:marcewq:1,2012-05-06T13:00:00Z,28.1323,-97.0344,0.0,24.9,1111122 
NERRS,ioos:station:NOAA.NERRS:marcewq:1,2012-05-06T13:30:00Z,28.1323,-97.0344,0.0,24.9,1111122 
NERRS,ioos:station:NOAA.NERRS:marcewq:1,2012-05-06T14:00:00Z,28.1323,-97.0344,0.0,24.9,1111122 
NERRS,ioos:station:NOAA.NERRS:marcewq:1,2012-05-06T14:30:00Z,28.1323,-97.0344,0.0,24.9,1111122 
NERRS,ioos:station:NOAA.NERRS:marcewq:1,2012-05-06T15:00:00Z,28.1323,-97.0344,0.0,24.9,1111122 
NERRS,ioos:station:NOAA.NERRS:marcewq:1,2012-05-06T16:00:00Z,28.1323,-97.0344,0.0,24.9,1111122 
NERRS,ioos:station:NOAA.NERRS:marcewq:1,2012-05-06T16:30:00Z,28.1323,-97.0344,0.0,24.9,1111122 
NERRS,ioos:station:NOAA.NERRS:marcewq:1,2012-05-06T17:00:00Z,28.1323,-97.0344,0.0,24.9,1111122 
NERRS,ioos:station:NOAA.NERRS:marcewq:1,2012-05-06T17:30:00Z,28.1323,-97.0344,0.0,25.0,1111122 
NERRS,ioos:station:NOAA.NERRS:marcewq:1,2012-05-06T18:00:00Z,28.1323,-97.0344,0.0,25.2,1111122 
NERRS,ioos:station:NOAA.NERRS:marcewq:1,2012-05-06T18:30:00Z,28.1323,-97.0344,0.0,25.3,1111122 
NERRS,ioos:station:NOAA.NERRS:marcewq:1,2012-05-06T19:00:00Z,28.1323,-97.0344,0.0,25.3,1111122 
NERRS,ioos:station:NOAA.NERRS:marcewq:1,2012-05-06T19:30:00Z,28.1323,-97.0344,0.0,25.2,1111122 
NERRS,ioos:station:NOAA.NERRS:marcewq:1,2012-05-06T20:00:00Z,28.1323,-97.0344,0.0,25.2,1111122 
NERRS,ioos:station:NOAA.NERRS:marcewq:1,2012-05-06T20:30:00Z,28.1323,-97.0344,0.0,25.3,1111122 
NERRS,ioos:station:NOAA.NERRS:marcewq:1,2012-05-06T21:00:00Z,28.1323,-97.0344,0.0,25.3,1111122 
NERRS,ioos:station:NOAA.NERRS:marcewq:1,2012-05-06T21:30:00Z,28.1323,-97.0344,0.0,25.4,1111122 
NERRS,ioos:station:NOAA.NERRS:marcewq:1,2012-05-06T22:00:00Z,28.1323,-97.0344,0.0,25.4,1111122 
NERRS,ioos:station:NOAA.NERRS:marcewq:1,2012-05-06T22:30:00Z,28.1323,-97.0344,0.0,25.4,1111122 
NERRS,ioos:station:NOAA.NERRS:marcewq:1,2012-05-06T23:00:00Z,28.1323,-97.0344,0.0,25.4,1111122 
NERRS,ioos:station:NOAA.NERRS:marcewq:1,2012-05-06T23:30:00Z,28.1323,-97.0344,0.0,25.4,1111122 
NERRS,ioos:station:NOAA.NERRS:marcewq:1,2012-05-07T00:00:00Z,28.1323,-97.0344,0.0,25.3,1111122 
NERRS,ioos:station:NOAA.NERRS:marcewq:1,2012-05-07T00:30:00Z,28.1323,-97.0344,0.0,25.3,1111122 
NERRS,ioos:station:NOAA.NERRS:marcewq:1,2012-05-07T01:00:00Z,28.1323,-97.0344,0.0,25.2,1111122 
NERRS,ioos:station:NOAA.NERRS:marcewq:1,2012-05-07T02:00:00Z,28.1323,-97.0344,0.0,24.8,1111122 
NERRS,ioos:station:NOAA.NERRS:marcewq:1,2012-05-07T02:30:00Z,28.1323,-97.0344,0.0,24.8,1111122 
NERRS,ioos:station:NOAA.NERRS:marcewq:1,2012-05-07T03:00:00Z,28.1323,-97.0344,0.0,24.7,1111122 
NERRS,ioos:station:NOAA.NERRS:marcewq:1,2012-05-07T03:30:00Z,28.1323,-97.0344,0.0,24.6,1111122 
NERRS,ioos:station:NOAA.NERRS:marcewq:1,2012-05-07T04:00:00Z,28.1323,-97.0344,0.0,24.6,1111122 
NERRS,ioos:station:NOAA.NERRS:marcewq:1,2012-05-07T04:30:00Z,28.1323,-97.0344,0.0,24.6,1111122 
NERRS,ioos:station:NOAA.NERRS:marcewq:1,2012-05-07T05:00:00Z,28.1323,-97.0344,0.0,24.7,1111122 
NERRS,ioos:station:NOAA.NERRS:marcewq:1,2012-05-07T05:30:00Z,28.1323,-97.0344,0.0,24.8,1111122 
NERRS,ioos:station:NOAA.NERRS:marcewq:1,2012-05-07T06:00:00Z,28.1323,-97.0344,0.0,24.8,1111122 
NERRS,ioos:station:NOAA.NERRS:marcewq:1,2012-05-07T06:30:00Z,28.1323,-97.0344,0.0,24.7,1111122 
NERRS,ioos:station:NOAA.NERRS:marcewq:1,2012-05-07T07:00:00Z,28.1323,-97.0344,0.0,24.8,1111122 
NERRS,ioos:station:NOAA.NERRS:marcewq:1,2012-05-07T07:30:00Z,28.1323,-97.0344,0.0,24.8,1111122 
NERRS,ioos:station:NOAA.NERRS:marcewq:1,2012-05-07T08:00:00Z,28.1323,-97.0344,0.0,24.8,1111122 